De Queen, AR

2:14 PM CDT on October 14, 2019 (GMT -0500)
Helms Sevier County

Weather History for KDEQ - August, 2019

Change the Weather History Date:

Thursday, August 29, 2019

  Actual Average Record
Temperature  
Mean Temperature 81 °F 80 °F  
Max Temperature 91 °F 93 °F 108 °F (1954)
Min Temperature 70 °F 67 °F 52 °F (1986)
Degree Days  
Heating Degree Days 0 0  
Month to date heating degree days 0 0  
Since 1 June heating degree days 0 0  
Since 1 July heating degree days 0 0  
Cooling Degree Days 16 15  
Month to date cooling degree days 549 474  
Year to date cooling degree days 1686 1566  
Since 1 June cooling degree days 1413 1349  
Growing Degree Days 31 (Base 50)    
Moisture  
Dew Point 72 °F    
Average Humidity 77    
Maximum Humidity 100    
Minimum Humidity 56    
Precipitation  
Precipitation 0.00 in 0.07 in 2.18 in (1978)
Month to date precipitation 1.08 2.00  
Year to date precipitation 38.16 31.42  
Snow  
Snow 0.00 in - - ()
Month to date snowfall 0.0  
Since 1 June snowfall 0.0  
Since 1 July snowfall 0.0  
Snow Depth 0.00 in    
Sea Level Pressure  
Sea Level Pressure 30.01 in    
Wind  
Wind Speed 3 mph ()    
Max Wind Speed 10 mph    
Max Gust Speed 14 mph    
Visibility 10.0 miles    
Events      
T = Trace of Precipitation, MM = Missing Value Source: Averaged Metar Reports

Daily Weather History Graph

Daily Weather History Graph

Search for Another Location

Airport or City:

Astronomy

Aug. 29, 2019 Rise Set
Actual Time 6:48 AM CDT 7:47 PM CDT
Civil Twilight 6:23 AM CDT 8:13 PM CDT
Nautical Twilight 5:52 AM CDT 8:43 PM CDT
Astronomical Twilight 5:21 AM CDT 9:14 PM CDT
Moon 5:41 AM CDT (8/29) 7:41 PM CDT (8/29)
Length of Visible Light 13h 49m
Length of Day
12h 58m
Waning Crescent, 1% of the Moon is Illuminated
Aug 29
Waning Crescent
Aug 30
New
Sep 5
First Quarter
Sep 13
Full
Sep 21
Last Quarter

Hourly Weather History & Observations

Time (CDT) Temp. Heat Index Dew Point Humidity Pressure Visibility Wind Dir Wind Speed Gust Speed Precip Events Conditions
12:53 AM 75.0 °F - 72.0 °F 90% 30.03 in 10.0 mi ENE 3.5 mph - N/A   Partly Cloudy
1:53 AM 73.9 °F - 71.1 °F 91% 30.03 in 10.0 mi East 3.5 mph - N/A   Mostly Cloudy
2:53 AM 73.9 °F - 71.1 °F 91% 30.02 in 10.0 mi ENE 3.5 mph - N/A   Clear
3:53 AM 72.0 °F - 70.0 °F 93% 30.03 in 10.0 mi NE 3.5 mph - N/A   Partly Cloudy
4:53 AM 72.0 °F - 70.0 °F 93% 30.03 in 10.0 mi East 3.5 mph - N/A   Partly Cloudy
5:53 AM 71.1 °F - 69.1 °F 93% 30.04 in 10.0 mi ENE 3.5 mph - N/A   Clear
6:53 AM 70.0 °F - 69.1 °F 97% 30.05 in 10.0 mi ENE 3.5 mph - N/A   Clear
7:53 AM 73.0 °F - 69.1 °F 87% 30.06 in 10.0 mi East 4.6 mph - N/A   Clear
8:53 AM 77.0 °F - 68.0 °F 74% 30.07 in 10.0 mi ESE 5.8 mph - N/A   Clear
9:53 AM 81.0 °F 84.1 °F 69.1 °F 67% 30.07 in 10.0 mi East 5.8 mph - N/A   Clear
10:53 AM 84.0 °F 89.0 °F 71.1 °F 65% 30.06 in 10.0 mi ESE 4.6 mph - N/A   Clear
11:53 AM 86.0 °F 92.2 °F 72.0 °F 63% 30.05 in 10.0 mi Variable 5.8 mph - N/A   Clear
12:53 PM 89.1 °F 98.0 °F 73.9 °F 61% 30.04 in 10.0 mi Calm Calm - N/A   Clear
1:53 PM 88.0 °F 96.5 °F 73.9 °F 63% 30.02 in 10.0 mi South 5.8 mph - N/A   Scattered Clouds
2:53 PM 90.0 °F 97.9 °F 73.0 °F 57% 29.99 in 10.0 mi Calm Calm - N/A   Mostly Cloudy
3:53 PM 89.1 °F 97.0 °F 73.0 °F 59% 29.97 in 10.0 mi SE 5.8 mph - N/A   Partly Cloudy
4:53 PM 91.9 °F 103.2 °F 75.0 °F 58% 29.96 in 10.0 mi ESE 8.1 mph - N/A   Mostly Cloudy
5:53 PM 91.0 °F 100.4 °F 73.9 °F 57% 29.96 in 10.0 mi SE 6.9 mph - N/A   Clear
6:53 PM 89.1 °F 99.1 °F 75.0 °F 63% 29.95 in 10.0 mi ESE 4.6 mph - N/A   Clear
7:53 PM 84.0 °F 92.6 °F 75.9 °F 76% 29.95 in 10.0 mi Calm Calm - N/A   Clear
8:53 PM 82.9 °F 90.2 °F 75.0 °F 77% 29.96 in 10.0 mi ESE 5.8 mph - N/A   Clear
9:53 PM 81.0 °F 87.3 °F 75.9 °F 85% 29.98 in 10.0 mi East 4.6 mph - N/A   Clear
10:53 PM 79.0 °F - 75.0 °F 88% 30.00 in 10.0 mi Calm Calm - N/A   Partly Cloudy
11:53 PM 78.1 °F - 75.0 °F 90% 30.00 in 10.0 mi East 4.6 mph - N/A   Partly Cloudy